Simultaneous Nadir Overpasses (SNOs) Predictions

Prediction of SNOs between NOAA-15 and METOP-C Satellite Orbit:

Table of predicted SNOs for the next 14.0 days since TLE Epoch: 7/6/2019
Index Date (NOAA-15) Time (NOAA-15) Lat,Lon (NOAA-15) SZA (NOAA-15 ) Date (METOP-C) Time (METOP-C) Lat,Lon (METOP-C) SZA (METOP-C ) Distance(km) Time Diff (sec)
1 07/09/2019 15:50:00 -80.81, 156.02 120.05 07/09/2019 15:48:47 -80.82, 155.94 120.08 1.78 73
2 07/09/2019 16:40:36 80.82, -36.79 59.95 07/09/2019 16:39:28 80.81, -36.86 59.91 1.31 68
3 07/09/2019 17:31:03 -80.82, 130.66 120.05 07/09/2019 17:30:08 -80.83, 130.81 120.04 3.18 55
4 07/09/2019 18:21:39 80.82, -62.16 59.95 07/09/2019 18:20:49 80.82, -61.98 59.95 3.09 50
5 07/09/2019 19:12:06 -80.82, 105.29 120.05 07/09/2019 19:11:30 -80.82, 105.33 120.06 0.63 36
6 07/09/2019 20:02:42 80.83, -87.52 59.95 07/09/2019 20:02:11 80.82, -87.46 59.94 1.80 31
7 07/09/2019 20:53:09 -80.83, 79.93 120.04 07/09/2019 20:52:52 -80.82, 79.85 120.07 1.94 17
8 07/09/2019 21:43:44 80.82,-112.53 59.97 07/09/2019 21:43:32 80.83,-112.59 59.97 1.72 12
9 07/09/2019 22:34:12 -80.83, 54.57 120.04 07/09/2019 22:34:13 -80.83, 54.72 120.03 2.68 1
10 07/09/2019 23:24:47 80.82,-137.89 59.98 07/09/2019 23:24:54 80.82,-138.07 59.96 3.22 7
11 07/10/2019 00:15:15 -80.84, 29.21 120.04 07/10/2019 00:15:35 -80.82, 29.24 120.04 2.05 20
12 07/10/2019 01:05:50 80.83,-163.25 59.98 07/10/2019 01:06:15 80.83,-163.20 60.00 1.10 25
13 07/10/2019 01:56:17 -80.82, 4.20 120.02 07/10/2019 01:56:56 -80.83, 4.11 120.00 1.79 39
14 07/10/2019 02:46:53 80.83, 171.38 59.99 07/10/2019 02:47:37 80.82, 171.32 59.99 1.46 44
15 07/10/2019 03:37:20 -80.83, -21.16 120.01 07/10/2019 03:38:17 -80.84, -21.02 119.97 2.93 57
16 07/10/2019 04:27:56 80.84, 146.02 59.99 07/10/2019 04:28:58 80.84, 146.19 60.03 3.08 62




NCC Satellite Simultaneous Nadir Overpasses (SNOs) Prediction Service
